Weather History for PANT - February, 2014

Change the Weather History Date:

Monday, February 17, 2014

  Actual Average Record
Temperature  
Mean Temperature 35 °F 38 °F  
Max Temperature 38 °F 43 °F 53 °F (2015)
Min Temperature 31 °F 33 °F 8 °F (1948)
Degree Days  
Heating Degree Days 30 27  
Month to date heating degree days 613 462  
Since 1 July heating degree days 4143 4241  
Cooling Degree Days 0    
Month to date cooling degree days 0  
Year to date cooling degree days 0  
Moisture  
Dew Point 32 °F    
Average Humidity 0    
Maximum Humidity 0    
Minimum Humidity 0    
Precipitation  
Precipitation 0.27 in 0.25 in 2.98 in (1965)
Month to date precipitation 2.95 4.62  
Year to date precipitation 11.08 15.35  
Snow  
Snow 1.40 in 0.30 in 5.60 in (1967)
Month to date snowfall 9.4 4.3  
Since 1 July snowfall 19.5 23.6  
Snow Depth T in    
Sea Level Pressure  
Sea Level Pressure 29.38 in    
Wind  
Wind Speed 7 mph (South)    
Max Wind Speed 21 mph    
Max Gust Speed 33 mph    
Visibility 6 miles    
Events Fog , Rain , Snow    
T = Trace of Precipitation, MM = Missing Value Source: NWS Daily Summary

Daily Weather History Graph

Daily Weather History Graph

Search for Another Location

Airport or City:

Trip Planner

Search our weather history database for the weather conditions in past years. The results will help you decide how hot, cold, wet, or windy it might be!

Date:

Astronomy

Feb. 17, 2014 Rise Set
Actual Time 7:03 AM AKST 4:57 PM AKST
Civil Twilight 6:26 AM AKST 5:35 PM AKST
Nautical Twilight 5:44 AM AKST 6:17 PM AKST
Astronomical Twilight 5:02 AM AKST 6:59 PM AKST
Moon 8:36 PM AKST (2/17) 7:35 AM AKST (2/17)
Length of Visible Light 11h 08m
Length of Day
9h 53m
Waning Gibbous, 92% of the Moon is Illuminated
Feb 17
Waning Gibbous
Feb 22
Last Quarter
Feb 28
New
Mar 8
First Quarter
Mar 16
Full

Hourly Weather History & Observations

Time (AKST) Temp. Windchill Dew Point Humidity Pressure Visibility Wind Dir Wind Speed Gust Speed Precip Events Conditions
12:53 AM 33.1 °F 23.9 °F 33.1 °F 100% 29.12 in 4.0 mi ESE 12.7 mph 20.7 mph 0.03 in Rain Rain
1:53 AM 35.1 °F 29.3 °F 35.1 °F 100% 29.15 in 10.0 mi SE 6.9 mph - 0.07 in   Overcast
2:30 AM 37.0 °F 31.6 °F 37.0 °F 100% 29.15 in 10.0 mi South 6.9 mph 18.4 mph N/A   Overcast
2:42 AM 37.9 °F 33.5 °F 37.9 °F 100% 29.15 in 10.0 mi South 5.8 mph - N/A   Overcast
2:53 AM 37.9 °F 32.7 °F 37.9 °F 100% 29.16 in 10.0 mi South 6.9 mph - N/A   Overcast
3:53 AM 36.0 °F 28.5 °F 35.1 °F 97% 29.22 in 10.0 mi WSW 10.4 mph 20.7 mph N/A   Overcast
4:00 AM 36.0 °F 28.5 °F 35.1 °F 97% 29.22 in 10.0 mi WSW 10.4 mph 19.6 mph 0.00 in Rain Light Rain
4:30 AM 36.0 °F 29.6 °F 34.0 °F 93% 29.25 in 10.0 mi WSW 8.1 mph 16.1 mph 0.00 in   Overcast
4:45 AM 36.0 °F 29.6 °F 34.0 °F 93% 29.26 in 10.0 mi WSW 8.1 mph - 0.00 in   Overcast
4:53 AM 36.0 °F 29.0 °F 33.1 °F 89% 29.28 in 10.0 mi WSW 9.2 mph - 0.00 in   Overcast
5:53 AM 36.0 °F 30.3 °F 33.1 °F 89% 29.31 in 10.0 mi Variable 6.9 mph - 0.00 in Rain Light Rain
6:53 AM 35.1 °F 29.3 °F 30.0 °F 82% 29.35 in 10.0 mi SW 6.9 mph - 0.00 in   Partly Cloudy
7:53 AM 35.1 °F 32.2 °F 28.9 °F 78% 29.38 in 10.0 mi SSE 3.5 mph - N/A   Overcast
8:53 AM 36.0 °F 33.3 °F 28.9 °F 76% 29.40 in 10.0 mi SSE 3.5 mph - N/A   Mostly Cloudy
9:53 AM 37.9 °F 31.5 °F 30.0 °F 73% 29.41 in 10.0 mi SSE 9.2 mph 18.4 mph N/A   Overcast
10:53 AM 37.9 °F 31.5 °F 30.0 °F 73% 29.40 in 10.0 mi SE 9.2 mph - N/A   Overcast
11:49 AM 33.8 °F 25.3 °F 30.2 °F 87% 29.39 in 2.5 mi SE 11.5 mph 25.3 mph 0.00 in Snow Light Snow
11:53 AM 32.0 °F 21.6 °F 30.9 °F 96% 29.40 in 1.0 mi SSE 15.0 mph 21.9 mph 0.00 in Snow Light Snow
11:55 AM 32.0 °F 21.6 °F 30.9 °F 96% 29.39 in 0.8 mi SE 15.0 mph 21.9 mph 0.01 in Snow Light Snow
12:04 PM 30.9 °F 21.7 °F 30.9 °F 100% 29.40 in 0.2 mi SE 11.5 mph 20.7 mph 0.04 in Fog , Snow Heavy Snow
12:24 PM 30.9 °F 22.2 °F 30.9 °F 100% 29.38 in 0.5 mi ESE 10.4 mph 19.6 mph 0.11 in Fog , Snow Snow
12:31 PM 30.9 °F 21.2 °F 30.9 °F 100% 29.38 in 0.8 mi ESE 12.7 mph - 0.12 in Snow Light Snow
12:39 PM 30.9 °F 21.7 °F 30.9 °F 100% 29.38 in 1.2 mi SE 11.5 mph - 0.14 in Snow Light Snow
12:51 PM 33.8 °F 24.8 °F 33.8 °F 100% 29.40 in 4.0 mi South 12.7 mph 33.4 mph 0.16 in Snow Light Snow
12:53 PM 33.1 °F 26.1 °F 33.1 °F 100% 29.40 in 7.0 mi SSE 8.1 mph 33.4 mph 0.16 in   Overcast
1:00 PM 33.1 °F - 33.1 °F 100% 29.39 in 10.0 mi North - - 0.00 in   Overcast
1:11 PM 35.1 °F 29.3 °F 34.0 °F 96% 29.39 in 10.0 mi SSW 6.9 mph 17.3 mph 0.00 in   Overcast
1:31 PM 35.1 °F 27.9 °F 34.0 °F 96% 29.40 in 6.0 mi SSW 9.2 mph 18.4 mph 0.01 in Rain Light Rain
1:53 PM 37.0 °F 31.0 °F 34.0 °F 89% 29.42 in 10.0 mi West 8.1 mph 24.2 mph 0.01 in   Overcast
2:00 PM 37.0 °F 30.4 °F 35.1 °F 93% 29.41 in 10.0 mi WSW 9.2 mph 23.0 mph N/A   Mostly Cloudy
2:53 PM 37.0 °F 30.4 °F 28.9 °F 73% 29.44 in 10.0 mi SSW 9.2 mph - N/A   Overcast
3:53 PM 35.1 °F 30.1 °F 33.1 °F 92% 29.45 in 10.0 mi South 5.8 mph - 0.00 in   Overcast
4:53 PM 33.1 °F 30.0 °F 32.0 °F 96% 29.46 in 10.0 mi Variable 3.5 mph - N/A   Overcast
5:53 PM 32.0 °F - 32.0 °F 100% 29.47 in 10.0 mi Calm Calm - 0.00 in   Mostly Cloudy
6:53 PM 32.0 °F - 30.9 °F 96% 29.47 in 10.0 mi Calm Calm - N/A   Mostly Cloudy
7:53 PM 34.0 °F 26.6 °F 30.9 °F 89% 29.45 in 10.0 mi SSE 9.2 mph - N/A   Overcast
8:09 PM 32.0 °F 27.5 °F 32.0 °F 100% 29.45 in 4.0 mi Variable 4.6 mph 17.3 mph 0.01 in Snow Light Snow
8:14 PM 32.0 °F 27.5 °F 32.0 °F 100% 29.45 in 1.8 mi SSE 4.6 mph - 0.01 in Snow Light Snow
8:26 PM 30.9 °F 27.5 °F 30.9 °F 100% 29.45 in 1.5 mi South 3.5 mph - 0.03 in Snow Light Snow
8:40 PM 30.9 °F - 30.9 °F 100% 29.45 in 1.0 mi Calm Calm - 0.07 in Snow Light Snow
8:50 PM 30.2 °F - 30.2 °F 100% 29.44 in 3.0 mi Calm Calm - 0.07 in Snow Light Snow
8:53 PM 30.9 °F - 30.9 °F 100% 29.45 in 6.0 mi Calm Calm - 0.07 in Snow Light Snow
9:03 PM 30.9 °F - 30.9 °F 100% 29.44 in 1.8 mi Calm Calm - 0.01 in Snow Light Snow
9:13 PM 30.9 °F 27.5 °F 30.9 °F 100% 29.43 in 2.5 mi NNE 3.5 mph - 0.02 in Snow Light Snow
9:20 PM 30.9 °F 27.5 °F 30.9 °F 100% 29.43 in 9.0 mi West 3.5 mph - 0.02 in Snow Light Snow
9:28 PM 30.9 °F - 30.9 °F 100% 29.43 in 3.0 mi Calm Calm - 0.03 in Snow Light Snow
9:34 PM 30.9 °F - 30.9 °F 100% 29.42 in 2.0 mi Calm Calm - 0.04 in Snow Light Snow
9:50 PM 30.2 °F - 30.2 °F 100% 29.42 in 1.8 mi Calm Calm - 0.06 in Snow Light Snow
9:53 PM 30.9 °F - 30.9 °F 100% 29.43 in 1.5 mi Calm Calm - 0.07 in Snow Light Snow
10:01 PM 30.9 °F - 30.9 °F 100% 29.42 in 3.0 mi Calm Calm - 0.01 in Snow Light Snow
10:16 PM 30.9 °F - 30.9 °F 100% 29.42 in 2.5 mi Calm Calm - 0.03 in Snow Light Snow
10:31 PM 30.9 °F - 30.9 °F 100% 29.41 in 6.0 mi Calm Calm - 0.05 in Snow Light Snow
10:43 PM 30.9 °F - 30.9 °F 100% 29.42 in 1.8 mi Calm Calm - 0.06 in Snow Light Snow
10:53 PM 30.9 °F 27.5 °F 30.9 °F 100% 29.42 in 1.0 mi South 3.5 mph - 0.12 in Snow Light Snow
11:12 PM 30.9 °F - 30.9 °F 100% 29.41 in 3.0 mi Calm Calm - 0.06 in Snow Light Snow
11:53 PM 33.1 °F 23.9 °F 33.1 °F 100% 29.42 in 10.0 mi SE 12.7 mph - 0.07 in   Overcast